Погода в Гяндже

Погода в Гяндже : погода сейчас, прогноз погоды и архив. Всё, что Вы хотите узнать о погоде в Гяндже!

Поиск расширенной информации на нашем сайте:

Другие новости

Новости СМИ2

Главная страница сайта

Новости сайта

03.07.2017

Напоминаем, что на нашем специализированном сайте Метеоцентр.Азия вы можете получить высокодетализированные автоматические прогнозы погоды по пунктам России, СНГ и мира в авиационном формате (включающие направление и скорость ветра, видимость, явления погоды, количество и форму облачности, нижнюю и верхнюю границу облачности).

Рекомендуем: Высказывания Мастеров восточных единоборств.

Погода в Гяндже - сегодня

Время (UTC), дата Ветер
(°,м/с) 
Видим.   Явления Облачность Т
(°С)
Тd
(°С)
f(%) Тe
(°С)
Pmin
(гПа)
dP
(гПа)
Po
(мм)
O2
(г/м3)
Тmin Tmax R s Состояние
почвы
09 22.02.18 290 (З) 10 км    10/10 1000 м 
[Sc]
+7.3 +0.9 64 +8  1018  -1.5  735  288           
12 22.02.18 тихо ()   10 км    10/10 1000 м 
[Sc]
+8.2 +0.4 58 +8  1016.2  -1.8  734  287           
15 22.02.18 тихо ()   10 км    9/9 1000 м 
[Sc]
+7.8 +0.4 59 +8  1016.5  0.3  734  288           
21 22.02.18 тихо ()   10 км    10/10 1000 м 
[Sc]
+7 -0 61 +7  1016.9  734  288           
00 23.02.18 тихо ()   10 км    10/10 1000 м 
[Sc]
+6.7 +0.6 65 +7  1017.2  0.3  735  289           
03 23.02.18 тихо ()   10 км    10/10 1000 м 
[Sc]
+6.4 -0.1 63 +6  1017.3  0.1  735  289           
06 23.02.18 тихо ()   10 км    10/10 1000 м 
[Sc]
+6.7 +1.8 71 +7  1018.1  0.8  735  289  +6.3         
09 23.02.18 090 (В) 4000 м    10/10 600 м 
[Frnb]
+7.8 +1.5 64 +9  1017.2  -0.9  735  288           
12 23.02.18 360 (С) 4000 м    10/10 600 м 
[Frnb]
+8.1 +1.7 64 +9  1016.3  -0.9  734  287           
15 23.02.18 320 (СЗ) 4000 м    10/10 600 м 
[Frnb]
+7.6 +2.5 70 +9  1016  -0.3  734  287           
21 23.02.18 320 (СЗ) 4000 м    10/10 600 м 
[Frnb]
+6.6 +1.9 72 +8  1015.6  -0.7  733  288           
00 24.02.18 320 (СЗ) 4000 м    10/10 600 м 
[Frnb]
+6.3 +1.9 73 +7  1014.4  -1.2  733  288           
03 24.02.18 320 (СЗ) 4000 м    10/10 600 м 
[Frnb]
+5.7 +1.4 74 +7  1014.1  -0.3  732  289           
09 24.02.18 290 (З) 4000 м    6/6 1000 м средняя 
[Cu hum|Ac cast]
+9.2 +1.1 57 +10  1012.3  -1.5  731  285           
12 24.02.18 тихо ()   4000 м    ясно 
+11.5 +2.9 55 +12  1010.1  -2.2  730  282           
15 24.02.18 110 (В) 10 км    3/3 1000 м 
[Cu med, cong]
+9.2 +4.1 70 +10  1010  -0.1  730  284           
21 24.02.18 140 (ЮВ) 10 км    ясно 
+4.8 +2.1 83 +6  1012  0.1  731  289           
00 25.02.18 тихо ()   10 км    9/9 1000 м 
[Sc]
+4.4 +2.2 86 +4  1012.4  0.4  731  289           
03 25.02.18 тихо ()   10 км    10/10 1000 м 
[Sc]
+5.3 +2.9 84 +5  1012.7  -0.2  731  288           
09 25.02.18 050 (СВ) 4000 м    4/4 1000 м 
[Cu med, cong]
+10.6 +3.2 60 +12  1009.9  -2.4  730  283           
12 25.02.18 090 (В) 4000 м    ясно 
+12.9 +4.3 56 +14  1007.3  -2.6  728  279           
15 25.02.18 тихо ()   4000 м    1/0 верхняя 
[Ci fib]
+10.9 +4.6 65 +11  1007.2  -0.1  728  281           
18 25.02.18 140 (ЮВ) 4000 м    ясно 
+7.2 +4.1 81 +8  1008.2  728  285    +12.9       
21 25.02.18 тихо ()   4000 м    ясно 
+4.4 +2.4 87 +4  1008.7  0.5  728  288           
00 26.02.18 320 (СЗ) 4000 м    5/5 1000 м 
[Cu med, cong]
+5 +3.3 89 +6  1008.3  -0.4  728  288           
Время (UTC), дата Ветер
(°,м/с) 
Видим.   Явления Облачность Т
(°С)
Тd
(°С)
f(%) Тe
(°С)
Pmin
(гПа)
dP
(гПа)
Po
(мм)
O2
(г/м3)
Тmin Tmax R s Состояние
почвы

Для получения пояснительной информации подведите курсор к названию столбца.

ПОГОДА в Гяндже - архив

Всё, что Вы хотите узнать о погоде в Гяндже - удобно и подробно!

Выберите нужную дату (начиная с 1 января 2015* года) и нажмите кнопку "Найти".
Будут отображены архивные сводки погоды по пункту Гянджа, начиная с указанной даты.


Отображать данные в формате CSV (для использования в таблицах Excel)


Внимание! Наш архив погоды предназначен исключительно для личного некоммерческого использования в познавательных целях. Если Вам необходимы официальные справки о состоянии погоды (для производственных, юридических, коммерческих и т.п. целей), обращайтесь в органы Росгидромета.

*Примечание: данная дата относится к архиву по метеостанциям СССР (Россия, СНГ, Балтия).
Архив по метеостанциям Зарубежной Европы и Азии (кроме Китая) хранится 10 дней, по другим регионам земного шара (Китай, Африка, Америка, Австралия, Океания) - 1 день.

Гянджа - район местоположения метеостанции


Название, широта, долгота, высота метеостанции:
Гянджа (город) 40.7°ш. 46.4°д. 311 м над ур. моря [Азербайджан]

Дополнительная информация

В oтличие oт бoльшинства пoгoдных сайтoв мы публикуем пoдрoбную метеoинфoрмацию в детальнoм прoфессиoнальнoм фoрмате.

Характеристики температуры и влажнoсти вoздуха измеряются на высoте 2 м в тени вдали oт зданий и деревьев.
Скoрoсть ветра измеряется на высoте 10 м (на урoвне рoста челoвека скoрoсть ветра ниже в 1.5-2 раза). Если метеoстанция нахoдится в гoрoде или в лесу, тo скoрoсть ветра занижена на 2-4 м/с пo сравнению с oткрытым местoм. Скoрoсть ветра над акватoриями крупных рек и oзёр, а также на вершинах хoлмoв на 2-5 м/с выше, чем в oбычных услoвиях.
Атмoсфернoе давление в разных тoчках местнoсти мoжет значительнo oтличаться oт давления на метеoстанции, в зависимoсти oт услoвий рельефа (при пoдъёме на 10 м давление пoнижается примернo на 1 мм рт.ст.).